Flag for Russia Weather past 2 weeks in Surgut, Russia

Now
3 °F

Light snow. Mostly cloudy.


Feels Like: -12 °F
Forecast: 2 / 13 °F
Wind: 10 mph from Southwest

Location: Surgut Airport

Current Time: Jan 26, 2015 at 4:31:12 AM

Latest Report: Jan 26, 2015 at 4:00 AM


Visibility: 4 mi

Pressure: 30.27 "Hg

Humidity: 78%

Dew point: -2 °F

Location of SurgutLocation

Historic Weather in Surgut — Graph

°F

Surgut temperature yesterday

Maximum temperature yesterday: 9 °F (at 12:00 AM)
Minimum temperature yesterday: 1 °F (at 3:30 AM)
Average temperature yesterday: 6 °F

Past Weeks' High & Low Weather Summary

 TemperatureHumidityPressure
High28 °F (Jan 19, 3:30 PM)100% (Jan 19, 1:00 AM)30.66 "Hg (Jan 19, 1:00 AM)
Low-35 °F (Jan 23, 4:30 AM)66% (Jan 23, 3:30 AM)29.15 "Hg (Jan 19, 11:00 AM)
Average-3 °F81%29.94 "Hg
* Reported Jan 11 3:00 AM — Jan 26 3:30 AM, Surgut, Weather by CustomWeather, © 2014

Note: Actual official high and low records may vary slightly from our data, if they occured in-between our weather recording intervals... More about our weather records

Advertising

Surgut weather history for previous 24 hours

 ConditionsComfort  
Time TempWeatherWind HumidityBarometerVisibility
3:30 AM
Jan 26
3 °FPassing clouds.10 mph78%30.30 "Hg4 mi
3:00 AM3 °FPartly cloudy.10 mph78%30.30 "Hg4 mi
2:30 AM3 °FLight snow. Mostly cloudy.13 mph78%30.30 "Hg4 mi
2:00 AM3 °FLight snow. Mostly cloudy.10 mph85%30.30 "Hg1 mi
1:30 AM3 °FSnow. Overcast.10 mph85%30.33 "Hg1 mi
1:00 AM3 °FSnow. Overcast.10 mph85%30.33 "Hg1 mi
12:30 AM3 °FOvercast.15 mph85%30.36 "Hg1 mi
12:00 AM3 °FIce fog.15 mph85%30.36 "Hg1 mi
11:30 PM
Jan 25
3 °FMostly cloudy.15 mph85%30.36 "Hg1 mi
11:00 PM3 °FMostly cloudy.13 mph85%30.36 "Hg1 mi
10:30 PM3 °FMostly cloudy.13 mph78%30.36 "Hg1 mi
10:00 PM3 °FLight snow. Mostly cloudy.13 mph78%30.36 "Hg3 mi
9:30 PM3 °FLight snow. Mostly cloudy.15 mph78%30.36 "Hg4 mi
9:00 PM3 °FMostly cloudy.13 mph78%30.36 "Hg4 mi
8:00 PM3 °FPartly cloudy.13 mph78%30.39 "Hg4 mi
7:30 PM3 °FPassing clouds.15 mph78%30.39 "Hg4 mi
7:00 PM3 °FClear.13 mph72%30.42 "Hg4 mi
6:30 PM3 °FPassing clouds.10 mph78%30.42 "Hg4 mi
6:00 PM3 °FPassing clouds.10 mph78%30.42 "Hg4 mi
5:30 PM5 °FPassing clouds.10 mph72%30.45 "Hg4 mi
5:00 PM5 °FPassing clouds.13 mph72%30.45 "Hg4 mi
4:30 PM5 °FScattered clouds.10 mph72%30.48 "Hg4 mi
4:00 PM5 °FScattered clouds.8 mph72%30.48 "Hg4 mi
3:30 PM7 °FScattered clouds.10 mph66%30.48 "Hg4 mi
3:00 PM7 °FScattered clouds.10 mph66%30.48 "Hg4 mi
2:30 PM7 °FScattered clouds.10 mph66%30.51 "Hg4 mi
2:00 PM7 °FScattered clouds.10 mph66%30.51 "Hg4 mi
1:30 PM7 °FScattered clouds.13 mph66%30.54 "Hg4 mi
1:00 PM7 °FScattered clouds.10 mph66%30.54 "Hg4 mi
12:30 PM7 °FScattered clouds.13 mph72%30.57 "Hg4 mi
12:00 PM7 °FPassing clouds.13 mph72%30.57 "Hg4 mi
11:30 AM7 °FPassing clouds.13 mph72%30.57 "Hg4 mi
11:00 AM9 °FPassing clouds.10 mph72%30.60 "Hg4 mi
10:30 AM7 °FPassing clouds.10 mph78%30.60 "Hg4 mi
10:00 AM7 °FPassing clouds.8 mph78%30.60 "Hg4 mi
9:30 AM7 °FPassing clouds.8 mph78%30.60 "Hg4 mi
9:00 AM7 °FPassing clouds.8 mph85%30.63 "Hg4 mi
8:30 AM9 °FPassing clouds.6 mph78%30.63 "Hg4 mi
8:00 AM9 °FPassing clouds.8 mph78%30.63 "Hg4 mi
7:30 AM9 °FPassing clouds.6 mph78%30.63 "Hg4 mi
7:00 AM9 °FPassing clouds.6 mph78%30.66 "Hg4 mi
6:30 AM9 °FPassing clouds.6 mph78%30.66 "Hg4 mi
6:00 AM7 °FPassing clouds.6 mph78%30.66 "Hg4 mi
5:30 AM7 °FPassing clouds.8 mph85%30.66 "Hg4 mi
5:00 AM7 °FPassing clouds.8 mph85%30.66 "Hg4 mi
4:30 AM5 °FPassing clouds.6 mph85%30.66 "Hg4 mi
4:00 AM3 °FPassing clouds.6 mph85%30.66 "Hg4 mi
Weather by CustomWeather, © 2014

See weather overviewHow to use our weather pages